This is the latest recevied weather packets stored in our database for station/object DL9GJ-6. If no packets are shown the sender has not sent any weather packets the latest 10 day(s).
| Time | Temp. | Humidity | Pressure | Rain* | Wind** | Luminosity | Snow |
|---|---|---|---|---|---|---|---|
| 1777883903 | 19.44° C | 53% | 1013.1 hPa | 0 mm | - | 681 W/m² | - |
| 1777883890 | 19.44° C | 53% | 1013.1 hPa | 0 mm | - | 681 W/m² | - |
| 1777883542 | 18.89° C | 55% | 1013.2 hPa | 0 mm | - | 652 W/m² | - |
| 1777883183 | 18.89° C | 55% | 1013.2 hPa | 0 mm | - | 635 W/m² | - |
| 1777882822 | 18.89° C | 57% | 1013.3 hPa | 0 mm | - | 494 W/m² | - |
| 1777882462 | 18.33° C | 60% | 1013.4 hPa | 0 mm | - | 545 W/m² | - |
| 1777882102 | 18.33° C | 60% | 1013.6 hPa | 0 mm | - | 531 W/m² | - |
| 1777881744 | 18.33° C | 61% | 1013.6 hPa | 0 mm | - | 455 W/m² | - |
| 1777881734 | 18.33° C | 61% | 1013.6 hPa | 0 mm | - | 455 W/m² | - |
| 1777881384 | 18.33° C | 60% | 1013.5 hPa | 0 mm | - | 512 W/m² | - |
| 1777881371 | 18.33° C | 60% | 1013.5 hPa | 0 mm | - | 512 W/m² | - |
| 1777881023 | 17.78° C | 63% | 1013.5 hPa | 0 mm | - | 571 W/m² | - |
| 1777880663 | 17.22° C | 63% | 1013.6 hPa | 0 mm | - | 511 W/m² | - |
| 1777880303 | 17.22° C | 66% | 1013.6 hPa | 0 mm | - | 504 W/m² | - |
| 1777879944 | 16.67° C | 66% | 1013.6 hPa | 0 mm | - | 475 W/m² | - |
| 1777879584 | 16.11° C | 67% | 1013.7 hPa | 0 mm | - | 428 W/m² | - |
| 1777879569 | 16.11° C | 67% | 1013.7 hPa | 0 mm | - | 428 W/m² | - |
| 1777879223 | 16.11° C | 68% | 1013.7 hPa | 0 mm | - | 457 W/m² | - |
| 1777878864 | 16.11° C | 66% | 1013.7 hPa | 0 mm | - | 268 W/m² | - |
| 1777878504 | 16.11° C | 66% | 1013.7 hPa | 0 mm | - | 351 W/m² | - |
| 1777878142 | 16.11° C | 66% | 1013.7 hPa | 0 mm | - | 460 W/m² | - |
| 1777878130 | 16.11° C | 66% | 1013.7 hPa | 0 mm | - | 460 W/m² | - |
| 1777877782 | 16.11° C | 67% | 1013.7 hPa | 0 mm | - | 301 W/m² | - |
| 1777877422 | 15.56° C | 66% | 1013.7 hPa | 0 mm | - | 292 W/m² | - |
| 1777877063 | 15.56° C | 69% | 1013.6 hPa | 0 mm | - | 444 W/m² | - |
* Rain latest hour (hover to see other rain measurements)
** Current wind speed in m/s (hover to see current wind gust speed)